STARLINK-4775, 53934

Orbit data source: Space-Track

STARLINK-4775, 53934 is a payload satellite owned by SpaceX/Seattle (US) in LEO that was launched on Sat, 24 Sep 2022 UTC via an FALCON 9 launch vehicle from the Air Force Eastern Test Range (AFETR). Payload-class satellites include a variety of spacecraft equipped with specific instruments for various scientific and technological missions. These include communications satellites like Starlink; space stations such as the ISS; scientific satellites like the Hubble; Earth observation satellites from companies like Planet Labs, Umbra, and HawkEye 360; GPS; miniature CubeSats for education and research; and military/defense satellites.

Loading next visibility...
Identifier
53934, 2022-119BA
Orbit
LEO
Country
Flag of USUS
Related business
Manufacturer
SpaceX/Seattle
Mission
Operational Commercial Communications
Bus & Motor
STARLINK, Unknown motor
Mass
305 kg wet, ~290 kg dry
Launch date (UTC)
2022-09-24 (4 years ago)
Launch vehicle
FALCON 9
Launch site
Air Force Eastern Test Range (AFETR)
Object type
Payload
Rocket body
Debris
Shape & HBR
Box + 1 Pan, 10.1 m
Radar Cross Section
13.562 m², Large (>1 m²)

Expand to show TLE details & history
Last TLE update: 2 days ago

TLE from 2 days ago
0 STARLINK-4775
1 53934U 22119BA  26171.35552509 -.00000163  00000-0  78731-5 0  9992
2 53934  53.1614 198.1674 0001196  98.8660 261.2467 15.08829054207555
Epoch: 2026-06-20T08:31Z
TLE epoch observation values (Epoch: 2026-06-20T08:31:57.367Z)
Latitude
-0.00003°
Longitude
161.60702°
Altitude
540.794 km
Speed
7.593 km/s
True Right ascension
13h 12m 40s
True Declination
0° 00' 00"
Sunlit
Object was in daylight at epoch
Visualization orbit readout
Latitude
Unknown
Longitude
Unknown
Altitude
Unknown
Speed
Unknown
Apparent Right ascension
Unknown
Apparent Declination
Unknown
Sunlit
N/A
Visualization observer readout
Local Sidereal Time
21:31:35
Azimuth
Unknown
Elevation
Unknown
Doppler factor
Unknown
Orbital elements
Apogee altitude
540.858 km
Perigee altitude
539.203 km
Semi-major axis
6,918.168 km
Eccentricity
0.00012
Inclination
53.1614°
RAAN
198.1674°
Arg. of periapsis
98.866°
True anomaly
261.23315°
Mean anomaly
261.2467°
Eccentric anomaly
261.23993°
Mean motion
3.77187 °/min
Orbital period
95.44 mins
BSTAR
0.0000078731
Loading maneuver chart data...
Computing Atmospheric mass density...
Loading historical data...
Loading historical data...
Loading historical data...
Loading historical data...
Loading historical data...
Loading historical data...
Loading historical data...

Documentation

Showing up to 5 results
|